Wind_Speed
29 31 33 33 29 32 37 40 40 37 36 35 34 33 32 33 33 33 33 33 33 34 34 35 37 38 38 36 35 35 35 36 33 32 32 33 33 32 31 30 34 33 35
25 29 29 30 32 39 40 44 42 39 37 35 35 36 37 37 39 39 39 40 39 40 41 41 42 43 43 45 43 42 40 39 40 39 37 34 35 36 36 33 35 32 37
25 31 32 37 37 42 44 45 42 39 38 40 42 44 45 46 47 47 47 48 48 49 49 48 49 50 50 49 51 50 48 47 45 44 43 42 39 38 40 39 39 35 32
37 34 42 40 45 48 48 46 43 44 47 48 50 52 54 55 55 56 57 57 58 59 59 59 58 57 57 57 56 55 56 54 53 52 49 47 45 44 43 47 42 38 39
40 44 49 50 47 46 46 46 48 50 52 54 57 59 60 62 63 63 64 66 67 68 69 68 67 67 67 67 66 64 62 62 59 58 57 55 52 49 49 47 44 43 43
47 44 45 45 44 47 50 52 53 55 58 60 63 66 68 69 70 71 72 73 74 75 76 77 77 76 76 75 75 73 72 70 68 66 63 63 61 57 55 53 47 47 48
43 44 44 46 49 52 56 57 59 62 65 68 71 72 72 71 74 77 79 81 81 82 83 85 86 87 86 83 82 81 79 78 77 75 72 69 67 64 59 57 54 53 51
42 44 49 53 57 60 59 60 63 65 69 71 74 76 78 80 81 86 88 89 89 88 88 89 90 91 93 93 92 90 88 86 84 83 80 78 74 71 68 65 63 60 56
50 53 57 60 62 60 61 64 68 70 75 78 82 86 89 92 97 97 96 97 97 95 94 93 90 89 89 91 93 95 95 94 91 88 87 84 83 79 76 73 71 66 63
55 58 60 60 61 64 69 72 74 79 85 88 92 95 102 107 107 107 103 100 98 97 97 97 97 97 97 96 94 92 93 95 94 95 92 90 88 86 83 79 78 76 71
57 60 61 63 68 72 75 80 84 88 91 95 98 102 104 103 101 99 95 89 84 82 83 84 84 85 89 94 97 97 97 97 96 96 97 94 90 89 88 84 83 81 78
60 62 66 70 74 77 81 85 89 93 97 100 104 104 101 95 90 83 81 74 66 58 58 61 63 63 65 71 76 88 95 98 98 97 99 98 94 89 90 87 88 83 84
64 68 72 75 79 83 87 92 95 98 102 102 101 95 86 77 71 68 66 61 55 49 48 51 56 61 64 62 59 61 66 76 88 95 96 97 98 93 88 89 88 84 82
69 72 75 78 83 86 90 95 101 104 104 101 89 77 69 62 57 54 51 51 52 51 51 49 41 44 48 51 50 49 49 53 60 71 79 90 93 94 89 87 88 86 83
71 74 79 83 87 90 95 102 104 102 92 81 70 62 55 46 39 39 41 44 46 44 40 42 42 46 47 51 49 48 44 41 47 54 62 71 83 89 90 87 86 85 82
74 79 82 85 89 95 101 104 99 88 75 62 53 44 32 35 40 42 43 47 52 51 44 44 43 45 45 46 48 49 48 43 40 42 50 58 66 76 86 87 87 85 82
78 81 86 89 94 100 103 98 83 67 53 42 35 34 35 38 40 41 48 53 50 53 53 39 42 38 40 40 40 43 49 49 45 41 40 44 49 61 72 80 86 86 84
82 86 89 93 99 100 94 78 61 46 37 35 35 36 38 41 44 44 52 48 49 48 45 41 41 42 44 44 43 40 41 46 50 46 43 41 38 45 60 72 77 82 84
84 88 92 99 99 92 75 60 45 37 36 36 36 38 41 44 47 47 49 47 45 42 44 45 43 45 46 46 45 43 41 40 46 50 48 44 40 36 43 57 69 77 77
85 91 99 98 89 73 59 46 38 33 35 37 38 41 43 48 49 49 48 47 40 41 45 48 49 50 47 43 42 42 42 41 41 46 49 47 44 39 38 42 51 65 75
91 98 97 88 73 60 47 39 34 33 35 37 39 41 45 50 49 51 48 41 39 43 46 50 49 47 42 38 37 38 40 41 37 42 47 49 47 43 39 38 39 42 56
97 96 86 72 61 47 38 34 31 33 35 36 39 43 47 47 47 47 44 38 40 44 47 48 46 42 37 31 31 34 36 39 39 43 48 49 48 46 41 40 38 32 37
95 83 71 61 49 39 35 33 33 35 35 36 39 42 44 45 47 44 37 36 39 44 47 46 41 36 31 30 30 32 35 36 38 41 46 53 49 48 44 41 41 38 41
80 71 62 51 40 35 33 32 32 33 35 38 40 42 41 43 45 40 32 34 38 41 43 42 35 30 24 24 25 26 29 33 38 41 47 50 51 49 49 44 42 39 40
71 64 53 43 36 33 33 32 33 34 35 37 39 40 41 42 40 33 29 31 35 39 40 37 29 25 20 18 17 13 15 22 29 36 40 43 45 48 51 50 46 44 43
66 55 45 38 34 33 32 30 31 32 34 36 38 39 40 39 35 28 26 29 32 35 36 34 27 22 17 12 10 9 11 13 21 28 33 36 38 41 47 51 51 48 47
Wind_Direction
293 293 289 290 291 299 301 299 299 296 292 290 289 289 288 287 288 287 285 282 280 279 277 277 277 278 278 274 267 264 267 267 260 262 267 263 255 251 247 237 228 222 228
296 292 289 293 298 303 300 297 293 292 290 288 287 286 284 284 283 282 280 280 279 277 277 275 274 273 272 274 272 268 264 261 264 262 258 258 257 251 249 246 235 229 224
292 290 288 298 294 295 296 292 289 288 286 286 288 287 287 288 287 286 285 284 284 281 279 277 276 274 272 268 267 267 265 264 261 261 259 255 252 250 249 245 241 237 240
294 285 298 293 292 298 297 293 290 290 290 293 293 292 290 290 289 288 287 286 284 282 280 279 278 276 274 270 266 264 264 260 259 259 258 257 252 248 245 245 242 237 239
292 293 295 299 301 298 295 295 295 296 295 295 295 293 291 290 289 287 285 284 283 282 281 280 278 277 276 274 272 267 261 260 257 255 255 254 254 250 247 245 245 242 237
298 299 299 299 297 296 298 299 298 296 296 296 297 297 297 296 294 293 291 290 287 285 282 279 277 275 273 272 270 268 266 261 258 256 252 251 250 249 247 244 241 240 241
298 297 296 295 296 298 301 302 303 303 302 301 301 299 297 295 295 295 293 291 288 285 282 280 278 275 272 269 267 265 263 262 259 255 253 249 247 248 246 244 243 240 237
296 294 295 298 301 304 303 302 301 302 305 305 303 300 298 296 295 295 293 291 288 285 282 279 276 273 270 268 266 263 261 259 258 256 252 250 246 243 243 243 242 240 238
301 300 303 304 302 302 303 304 303 304 305 306 304 303 301 300 299 298 295 294 291 287 283 279 275 270 266 264 261 260 258 256 255 254 252 249 247 243 239 239 240 239 239
298 296 296 301 303 304 304 305 305 306 307 307 306 306 305 303 299 295 292 288 285 283 280 278 275 273 270 264 259 255 253 251 250 250 250 248 246 244 240 237 236 235 236
295 298 301 303 305 305 306 307 307 307 306 306 305 304 302 298 295 291 288 284 281 278 274 272 271 270 268 265 262 256 251 246 245 244 245 246 244 243 242 238 236 235 233
303 304 304 306 307 308 307 307 307 307 306 306 307 305 303 299 295 292 290 289 286 281 276 272 273 270 270 266 265 262 255 251 247 244 243 243 244 241 241 239 237 234 233
308 308 308 308 307 307 308 308 308 307 308 308 307 304 300 295 291 289 290 291 289 287 282 280 277 274 274 271 273 270 261 254 250 247 242 242 242 242 240 239 237 235 232
308 307 307 307 308 310 310 310 311 311 310 310 307 302 299 298 296 294 293 293 289 287 285 284 278 277 273 272 268 268 266 257 249 245 244 241 240 242 241 239 237 235 231
308 309 310 311 312 312 312 312 311 312 309 307 304 303 301 302 303 302 303 303 301 298 292 288 285 279 273 270 269 264 263 257 249 244 242 239 239 237 239 239 238 235 231
311 312 312 312 313 313 312 312 312 310 307 307 306 305 308 313 312 307 306 306 303 300 298 296 288 283 278 273 267 262 257 252 246 241 239 239 236 235 236 236 238 237 232
313 313 313 314 314 312 312 313 311 308 308 309 311 312 314 314 314 307 309 309 304 302 300 299 293 288 282 277 271 261 254 248 243 238 237 235 235 232 229 233 235 236 236
314 315 315 314 313 313 315 312 310 308 306 308 313 314 315 316 316 310 311 306 305 300 297 296 292 289 284 278 272 267 260 249 242 236 233 235 234 230 227 225 227 232 234
316 316 315 314 315 316 315 311 308 302 302 304 310 313 314 315 313 310 312 309 306 301 301 301 299 294 289 280 271 263 257 254 243 236 230 229 229 228 227 227 226 225 227
316 316 316 317 318 317 314 309 305 300 301 303 305 308 313 315 312 313 314 312 305 303 303 302 302 297 291 281 271 259 250 247 243 236 230 226 224 222 222 224 226 226 223
318 317 318 319 319 317 312 308 302 300 302 304 307 311 312 313 314 316 314 311 306 307 306 306 305 300 292 280 266 252 246 240 240 233 231 224 221 219 219 220 222 228 227
318 320 321 321 318 315 309 304 302 307 308 309 311 311 313 313 314 316 315 309 310 310 312 312 309 301 291 275 261 250 242 238 233 227 224 225 218 217 216 216 216 219 218
321 321 322 321 317 313 311 309 309 311 313 312 312 314 313 315 316 317 313 311 314 318 320 319 313 304 291 273 261 252 243 237 232 228 220 220 218 213 214 216 215 217 212
323 323 322 319 316 313 309 310 311 313 314 315 316 314 315 317 317 317 312 314 319 324 326 323 319 310 296 279 270 258 247 236 227 226 217 215 221 213 213 217 218 215 220
323 323 320 317 315 313 310 309 311 313 315 317 316 316 319 319 317 317 313 318 327 330 331 331 330 318 307 291 274 248 235 222 219 218 215 213 220 218 211 214 218 219 215
322 321 318 316 316 316 314 312 313 316 318 319 320 321 322 321 318 317 314 325 331 336 337 339 342 332 321 309 263 228 229 219 211 208 206 208 217 217 212 211 216 220 219
Height
5802 5799 5797 5795 5793 5790 5787 5784 5782 5779 5777 5775 5773 5771 5769 5767 5764 5763 5762 5761 5759 5757 5756 5755 5755 5754 5753 5754 5754 5755 5755 5754 5756 5755 5756 5760 5760 5760 5763 5762 5765 5767 5770
5794 5792 5791 5788 5785 5782 5780 5777 5774 5771 5768 5766 5764 5761 5759 5757 5755 5753 5752 5750 5750 5749 5748 5746 5745 5744 5744 5742 5743 5744 5745 5746 5746 5747 5748 5748 5752 5754 5755 5756 5757 5758 5762
5788 5785 5782 5780 5777 5774 5771 5768 5764 5761 5759 5756 5753 5750 5748 5746 5744 5742 5739 5738 5736 5735 5734 5734 5733 5732 5731 5731 5730 5731 5733 5733 5736 5736 5738 5741 5741 5744 5746 5749 5751 5751 5753
5781 5778 5774 5771 5767 5764 5761 5758 5754 5751 5748 5745 5742 5739 5736 5733 5731 5728 5726 5724 5722 5720 5718 5718 5717 5717 5717 5716 5717 5716 5716 5719 5721 5724 5726 5726 5731 5733 5736 5741 5740 5741 5746
5772 5768 5764 5760 5756 5752 5749 5746 5743 5740 5737 5733 5729 5725 5722 5718 5715 5712 5710 5707 5705 5702 5700 5699 5699 5698 5697 5698 5699 5700 5701 5701 5704 5707 5710 5714 5716 5719 5723 5726 5726 5729 5735
5762 5757 5753 5748 5744 5741 5738 5734 5731 5727 5722 5718 5713 5709 5704 5699 5694 5690 5687 5684 5682 5680 5678 5677 5676 5676 5676 5676 5677 5679 5681 5684 5686 5688 5691 5694 5699 5705 5710 5714 5714 5718 5723
5751 5746 5741 5737 5733 5729 5724 5719 5713 5708 5703 5699 5694 5689 5684 5679 5673 5668 5664 5660 5657 5654 5652 5650 5649 5650 5651 5652 5654 5655 5657 5660 5664 5668 5671 5675 5678 5682 5688 5695 5700 5706 5710
5742 5736 5731 5726 5720 5715 5710 5704 5698 5692 5685 5680 5673 5666 5662 5657 5653 5645 5639 5635 5631 5626 5622 5620 5620 5621 5621 5623 5626 5629 5632 5634 5638 5642 5647 5652 5658 5664 5669 5675 5683 5690 5694
5731 5725 5719 5713 5707 5701 5694 5687 5680 5673 5666 5659 5651 5642 5634 5628 5619 5614 5605 5599 5594 5589 5586 5585 5584 5584 5585 5588 5592 5597 5602 5605 5609 5613 5619 5626 5633 5641 5650 5656 5662 5670 5679
5720 5714 5708 5701 5694 5686 5678 5670 5662 5651 5642 5633 5623 5614 5603 5595 5586 5584 5578 5572 5567 5557 5551 5546 5542 5541 5543 5548 5553 5559 5566 5572 5578 5584 5589 5597 5604 5613 5624 5634 5642 5652 5661
5709 5702 5695 5687 5678 5668 5658 5648 5638 5629 5619 5608 5600 5590 5579 5567 5554 5543 5540 5537 5532 5526 5522 5517 5513 5509 5507 5508 5512 5519 5528 5536 5545 5552 5559 5566 5576 5585 5594 5608 5618 5630 5641
5695 5687 5678 5669 5658 5648 5638 5628 5618 5608 5597 5584 5570 5557 5544 5532 5520 5509 5502 5501 5502 5499 5493 5490 5487 5484 5481 5481 5482 5483 5491 5500 5509 5521 5528 5537 5546 5557 5566 5579 5591 5605 5616
5680 5671 5661 5651 5641 5631 5621 5610 5598 5583 5569 5554 5539 5526 5514 5505 5497 5488 5481 5477 5477 5479 5475 5473 5470 5466 5460 5460 5461 5459 5462 5467 5477 5486 5499 5509 5518 5529 5541 5551 5565 5579 5592
5665 5656 5646 5636 5626 5613 5600 5586 5571 5554 5539 5523 5510 5499 5489 5482 5476 5470 5465 5459 5459 5460 5459 5455 5450 5448 5444 5442 5444 5443 5443 5445 5451 5458 5469 5482 5494 5504 5515 5526 5538 5553 5569
5651 5641 5630 5618 5605 5591 5577 5561 5545 5528 5513 5500 5490 5481 5474 5467 5462 5457 5451 5445 5440 5439 5443 5441 5435 5431 5429 5425 5427 5428 5429 5430 5433 5438 5445 5454 5468 5480 5489 5501 5512 5527 5545
5635 5624 5612 5598 5584 5569 5554 5538 5521 5506 5493 5483 5475 5468 5462 5457 5452 5446 5440 5434 5428 5422 5422 5421 5419 5415 5412 5411 5410 5411 5413 5416 5419 5423 5428 5434 5443 5454 5467 5478 5489 5503 5519
5618 5606 5593 5580 5565 5548 5532 5516 5499 5486 5477 5470 5465 5459 5453 5448 5442 5436 5430 5423 5415 5408 5402 5409 5401 5401 5397 5395 5394 5394 5395 5399 5405 5410 5415 5419 5425 5434 5444 5455 5468 5480 5494
5599 5587 5574 5560 5545 5526 5509 5494 5481 5472 5466 5462 5456 5451 5445 5438 5432 5426 5419 5412 5404 5396 5390 5392 5389 5386 5382 5379 5378 5379 5379 5381 5388 5395 5402 5408 5412 5419 5426 5435 5445 5459 5470
5583 5569 5554 5538 5520 5504 5488 5477 5469 5462 5458 5453 5447 5442 5436 5430 5423 5417 5409 5400 5392 5385 5379 5375 5375 5370 5365 5361 5360 5362 5364 5366 5371 5378 5386 5395 5401 5407 5413 5420 5427 5438 5452
5566 5551 5531 5514 5497 5483 5472 5464 5458 5453 5448 5443 5438 5432 5426 5419 5412 5405 5396 5388 5381 5375 5368 5361 5358 5351 5346 5342 5341 5344 5347 5351 5356 5362 5371 5380 5389 5396 5402 5409 5416 5423 5433
5546 5529 5511 5492 5479 5468 5459 5453 5448 5444 5440 5434 5429 5422 5416 5408 5400 5392 5384 5377 5371 5364 5357 5349 5341 5333 5327 5324 5324 5327 5331 5336 5344 5350 5356 5366 5376 5385 5393 5400 5406 5412 5420
5525 5508 5492 5477 5465 5456 5450 5445 5440 5436 5430 5425 5420 5414 5407 5398 5391 5382 5374 5367 5361 5354 5345 5335 5326 5318 5312 5310 5310 5312 5317 5322 5330 5335 5342 5352 5364 5374 5382 5390 5398 5404 5412
5504 5488 5475 5464 5454 5447 5441 5436 5431 5426 5421 5416 5411 5404 5397 5388 5380 5373 5365 5359 5352 5343 5332 5322 5313 5305 5301 5298 5298 5300 5303 5309 5315 5322 5330 5340 5351 5363 5372 5381 5389 5396 5402
5487 5474 5462 5452 5444 5439 5433 5429 5424 5418 5413 5407 5401 5395 5387 5379 5371 5364 5358 5352 5344 5334 5324 5313 5303 5295 5291 5288 5287 5287 5290 5295 5303 5310 5318 5328 5338 5351 5362 5370 5379 5387 5393
5474 5463 5452 5444 5437 5432 5426 5421 5416 5411 5406 5399 5393 5386 5379 5370 5362 5356 5351 5346 5337 5327 5317 5307 5296 5289 5284 5281 5280 5281 5283 5287 5293 5301 5309 5320 5329 5340 5351 5361 5369 5377 5384
5462 5452 5443 5436 5429 5424 5418 5414 5409 5404 5398 5392 5385 5377 5370 5362 5355 5349 5345 5340 5332 5323 5313 5303 5293 5286 5281 5278 5277 5279 5281 5285 5289 5296 5304 5315 5321 5330 5341 5350 5358 5366 5374